COSMOS 2251 DEB, 47045

Orbit data source: Space-Track

COSMOS 2251 DEB, 47045 is space debris in LEO originally from a launch on Wed, 16 Jun 1993 UTC launched from the Plesetsk Missile And Space Complex (PKMTR). The debris from Iridium 33, an American commercial communications satellite, has been tracked extensively since its accidental collision with the defunct Russian satellite Cosmos 2251 in 2009. This event, occurring at high speed in low Earth orbit (LEO), generated thousands of pieces of space debris, significantly increasing the risk of further collisions. The Iridium 33 debris cloud has impacted space traffic management and orbital debris mitigation strategies, making it a subject of ongoing study in space situational awareness.

Loading next visibility...
Identifier
47045, 1993-036BWZ
Orbit
LEO
Country
Flag of CISCIS
Related business
Manufacturer
Unknown
Mission
Spacecraft
Bus & Motor
Unknown
Mass
Unknown
Launch date (UTC)
1993-06-16 (33 years ago)
Launch vehicle
Unknown
Launch site
Plesetsk Missile And Space Complex (PKMTR)
Object type
Payload
Rocket body
Debris
Shape & HBR
Unknown shape, 0.1 m
Radar Cross Section
Small (<0.1 m²)

Expand to show TLE details & history
Last TLE update: 2 days ago

TLE from 2 days ago
0 COSMOS 2251 DEB
1 47045U 93036BWZ 26143.43229664  .00000092  00000-0  38239-4 0  9993
2 47045  74.0583 211.3141 0030163 311.1280  65.0271 14.38984928101314
Epoch: 2026-05-23T10:22Z
TLE epoch observation values (Epoch: 2026-05-23T10:22:30.429Z)
Latitude
15.80447°
Longitude
179.25122°
Altitude
754.753 km
Speed
7.483 km/s
True Right ascension
14h 23m 42s
True Declination
15° 42' 52"
Sunlit
Object was in full shadow at epoch
Visualization orbit readout
Latitude
Unknown
Longitude
Unknown
Altitude
Unknown
Speed
Unknown
Apparent Right ascension
Unknown
Apparent Declination
Unknown
Sunlit
N/A
Visualization observer readout
Local Sidereal Time
14:25:14
Azimuth
Unknown
Elevation
Unknown
Doppler factor
Unknown
Orbital elements
Apogee altitude
781.002 km
Perigee altitude
737.944 km
Semi-major axis
7,137.61 km
Eccentricity
0.00302
Inclination
74.0583°
RAAN
211.3141°
Arg. of periapsis
311.128°
True anomaly
65.34093°
Mean anomaly
65.0271°
Eccentric anomaly
65.18396°
Mean motion
3.59927 °/min
Orbital period
100.02 mins
BSTAR
0.000038239
Loading maneuver chart data...
Computing Atmospheric mass density...

Documentation

Showing up to 5 results
|